TimeAKDT,TemperatureF,Dew PointF,Humidity,Sea Level PressureIn,VisibilityMPH,Wind Direction,Wind SpeedMPH,Gust SpeedMPH,PrecipitationIn,Events,Conditions,WindDirDegrees,DateUTC
12:54 AM,28.9,23.0,78,30.25,10.0,East,4.6,-,N/A,,Partly Cloudy,90,2013-04-30 08:54:00
1:54 AM,30.0,23.0,75,30.26,10.0,East,3.5,-,N/A,,Scattered Clouds,80,2013-04-30 09:54:00
2:54 AM,28.0,21.9,78,30.25,10.0,Calm,Calm,-,N/A,,Mostly Cloudy,0,2013-04-30 10:54:00
3:54 AM,30.9,19.9,64,30.25,10.0,East,4.6,-,N/A,,Overcast,80,2013-04-30 11:54:00
4:54 AM,32.0,19.9,61,30.24,10.0,East,5.8,-,N/A,,Overcast,80,2013-04-30 12:54:00
5:54 AM,32.0,21.0,64,30.23,10.0,ENE,8.1,-,N/A,,Overcast,70,2013-04-30 13:54:00
6:20 AM,32.0,21.2,64,30.23,10.0,East,8.1,-,N/A,,Overcast,90,2013-04-30 14:20:00
6:34 AM,32.0,23.0,69,30.23,10.0,East,5.8,-,N/A,,Overcast,80,2013-04-30 14:34:00
6:54 AM,32.0,23.0,69,30.24,10.0,East,9.2,-,N/A,,Overcast,90,2013-04-30 14:54:00
7:29 AM,30.2,24.8,80,30.24,1.8,East,8.1,-,0.00,Snow,Light Snow,80,2013-04-30 15:29:00
7:54 AM,30.9,25.0,79,30.25,1.0,Variable,6.9,-,0.00,Snow,Light Snow,0,2013-04-30 15:54:00
8:16 AM,30.2,26.6,86,30.24,0.5,East,10.4,-,0.00,Snow,Snow,90,2013-04-30 16:16:00
8:50 AM,30.2,26.6,86,30.23,0.8,East,9.2,-,0.01,Snow,Light Snow,80,2013-04-30 16:50:00
8:54 AM,30.9,27.0,85,30.25,1.0,East,10.4,-,0.01,Snow,Light Snow,80,2013-04-30 16:54:00
9:17 AM,30.2,26.6,86,30.24,0.8,East,9.2,-,0.01,Snow,Light Snow,90,2013-04-30 17:17:00
9:45 AM,30.2,26.6,86,30.23,1.0,ENE,10.4,-,0.01,Snow,Light Snow,70,2013-04-30 17:45:00
9:54 AM,30.9,27.0,85,30.24,1.2,East,10.4,19.6,0.01,Snow,Light Snow,80,2013-04-30 17:54:00
10:49 AM,32.0,28.4,87,30.22,2.5,East,8.1,-,0.01,Snow,Light Snow,80,2013-04-30 18:49:00
10:54 AM,32.0,28.0,85,30.23,3.0,ENE,9.2,-,0.01,Snow,Light Snow,70,2013-04-30 18:54:00
11:11 AM,32.0,28.4,87,30.22,2.0,East,11.5,17.3,0.00,Snow,Light Snow,90,2013-04-30 19:11:00
11:19 AM,32.0,28.4,87,30.22,1.8,East,10.4,17.3,0.00,Snow,Light Snow,80,2013-04-30 19:19:00
11:54 AM,32.0,28.9,88,30.23,1.2,East,11.5,17.3,0.00,Snow,Light Snow,80,2013-04-30 19:54:00
12:08 PM,33.8,28.4,81,30.22,2.5,ESE,6.9,-,0.00,Snow,Light Snow,110,2013-04-30 20:08:00
12:19 PM,33.8,30.2,87,30.22,1.8,Variable,6.9,-,0.00,Snow,Light Snow,0,2013-04-30 20:19:00
12:26 PM,33.8,30.2,87,30.22,2.5,SE,8.1,24.2,0.00,Snow,Light Snow,130,2013-04-30 20:26:00
12:37 PM,33.8,30.2,87,30.21,1.8,East,10.4,-,0.00,Snow,Light Snow,90,2013-04-30 20:37:00
12:48 PM,33.8,30.2,87,30.21,3.0,ESE,11.5,-,0.00,Snow,Light Snow,110,2013-04-30 20:48:00
12:54 PM,33.1,30.0,89,30.22,6.0,East,6.9,21.9,0.00,Snow,Light Snow,90,2013-04-30 20:54:00
1:54 PM,34.0,30.9,89,30.21,8.0,East,11.5,16.1,0.00,Snow,Light Snow,100,2013-04-30 21:54:00
2:54 PM,35.1,30.9,85,30.21,10.0,East,9.2,21.9,0.00,,Overcast,100,2013-04-30 22:54:00
3:12 PM,35.6,30.2,81,30.20,10.0,ESE,12.7,25.3,0.00,Rain,Light Rain,110,2013-04-30 23:12:00
3:54 PM,35.1,32.0,89,30.19,10.0,ESE,15.0,25.3,0.00,Rain,Light Rain,110,2013-04-30 23:54:00
4:18 PM,35.6,32.0,87,30.18,10.0,East,15.0,26.5,0.00,,Overcast,100,2013-05-01 00:18:00
4:54 PM,35.1,32.0,89,30.17,10.0,ESE,11.5,26.5,0.00,,Overcast,110,2013-05-01 00:54:00
5:10 PM,35.6,32.0,87,30.16,10.0,East,12.7,27.6,N/A,,Overcast,100,2013-05-01 01:10:00
5:54 PM,35.1,32.0,89,30.17,10.0,ESE,13.8,23.0,N/A,,Overcast,110,2013-05-01 01:54:00
6:24 PM,35.6,32.0,87,30.16,10.0,East,13.8,26.5,N/A,,Overcast,100,2013-05-01 02:24:00
6:54 PM,36.0,33.1,89,30.16,10.0,ESE,13.8,26.5,N/A,,Overcast,110,2013-05-01 02:54:00
7:05 PM,35.6,33.8,93,30.15,10.0,ESE,13.8,29.9,N/A,,Overcast,110,2013-05-01 03:05:00
7:54 PM,36.0,33.1,89,30.14,10.0,East,15.0,26.5,N/A,,Overcast,100,2013-05-01 03:54:00
8:54 PM,36.0,33.1,89,30.14,10.0,East,11.5,21.9,N/A,,Overcast,100,2013-05-01 04:54:00
9:54 PM,36.0,33.1,89,30.14,10.0,ESE,13.8,29.9,N/A,,Overcast,110,2013-05-01 05:54:00
10:17 PM,35.6,33.8,93,30.13,10.0,ESE,17.3,25.3,N/A,,Overcast,110,2013-05-01 06:17:00
10:54 PM,36.0,33.1,89,30.13,10.0,East,15.0,29.9,0.00,Rain,Light Rain,100,2013-05-01 06:54:00
11:54 PM,36.0,34.0,93,30.14,10.0,ESE,15.0,25.3,0.00,Rain,Light Rain,110,2013-05-01 07:54:00